sat.trackr.live / text

‹ back to catalog

STARLINK-31326

NORAD 58877 · 2024-020B

PAYLOAD ACTIVE UNKNOWN

§ Identity

Operator
Country
US
Launch date
2024-01-29
Launch site
AFWTR
Launch vehicle
Mass (kg)
RCS (m²)

Purposes: comms

External: N2YO · Heavens-Above · Gunter

§ Orbital elements

Epoch: 2026-05-24T19:17:10.479264Z

Period
94.01 min
Inclination
53.1612°
Eccentricity
0.0001048
Mean motion
15.31703599 rev/d
Perigee alt
470.0 km
Apogee alt
471.4 km
Semi-major
6,848.9 km
B*
4.9563e-5
RAAN
328.9372°
Arg perigee
93.1391°
Mean anomaly
266.9730°
Rev number
12,972

§ Raw data

STARLINK-313261 58877U 24020B   26144.80359351  .00001173  00000+0  49563-4 0  99962 58877  53.1612 328.9372 0001048  93.1391 266.9730 15.31703599129725

JSON: /api/v1/satellites/58877 · /tle

For live sub-satellite position, see the globe view (requires WebGL).

§ Visibility from observer

Set your observer location to see the next 7 days of passes ≥ 10°. The values pass through the URL so the page stays shareable.

No JS? Fill the form by hand. The geolocation button needs JavaScript.